This demonstration page uses our WeatherBlox Daily Observations layout. Learn more.

Left ArrowRight Arrow

Hourly Observations for July 18, 2016

Temp ( °F °C ) Dew Point ( °F °C ) Humidity (%) Winds ( mph kmh ) Pressure ( in mb ) Visibility ( mi km ) Precip ( " mm )
12:02 am 00:02 Mostly Cloudy with Thunderstorms 77 25 73 23 89 89 ESE 3 6 29.94 1014 10 16 0.00 0.00
12:10 am 00:10 Mostly Cloudy with Thunderstorms 77 25 73 23 89 89 W 3 6 29.94 1014 10 16 0.00 0.00
12:19 am 00:19 Cloudy with Strong Thunderstorms 77 25 75 24 94 94 NW 16 26 30.00 1016 3 4 0.00 0.00
12:20 am 00:20 Cloudy with Strong Thunderstorms 77 25 75 24 94 94 NW 15 24 30.00 1016 3 4 0.00 0.00
12:29 am 00:29 Cloudy with Strong Thunderstorms 77 25 75 24 94 94 NNW 9 15 30.00 1016 4 6 0.00 0.00
12:36 am 00:36 Mostly Cloudy with Light Rain and Scattered Storms 77 25 75 24 94 94 NNE 3 6 30.00 1016 8 13 0.00 0.00
12:58 am 00:58 Mostly Clear with Light Rain and Nearby Thunderstorms 74 23.5 74 23.2 98 98 NE 8 13 30.02 1017 10 16 14.01 355.85
1:11 am 01:11 Clear with Nearby Thunderstorms 73 23 73 23 100 100 E 9 15 30.03 1017 10 16 0.00 0.00
1:26 am 01:26 Mostly Clear with Nearby Thunderstorms 73 23 72 22 94 94 ENE 10 17 30.03 1017 10 16 0.00 0.00
1:58 am 01:58 Mostly Clear 70 21.1 68 20 93 93 ESE 10 17 30.05 1018 10 16 24.00 609.60
2:58 am 02:58 Partly Cloudy 69 20.5 67 19.4 93 93 NE 3 6 30.08 1019 10 16 24.00 609.60
3:58 am 03:58 Partly Cloudy 70 21.2 67 19.6 91 91 ENE 9 15 30.11 1020 10 16 24.00 609.60
4:06 am 04:06 Mostly Cloudy with Light Rain and Scattered Storms 70 21 66 19 88 88 E 13 20 30.09 1019 10 16 0.00 0.00
4:24 am 04:24 Partly Cloudy 68 20 64 18 88 88 ESE 13 20 30.06 1018 10 16 0.00 0.00
4:58 am 04:58 Partly Cloudy with Nearby Thunderstorms 69 20.7 67 19.3 92 92 NNE 8 13 30.13 1020 10 16 24.00 609.60
5:04 am 05:04 Mostly Cloudy with Light Rain and Scattered Storms 70 21 66 19 88 88 ENE 9 15 30.09 1019 10 16 0.00 0.00
5:13 am 05:13 Mostly Cloudy with Thunderstorms 70 21 66 19 88 88 VRB 5 7 30.06 1018 10 16 0.00 0.00
5:39 am 05:39 Cloudy with Thunderstorms 70 21 68 20 94 94 SE 10 17 30.09 1019 10 16 0.00 0.00
5:45 am 05:45 Cloudy with Nearby Thunderstorms 70 21 68 20 94 94 ESE 6 9 30.09 1019 10 16 0.00 0.00
5:58 am 05:58 Mostly Cloudy 69 20.7 67 19.3 92 92 E 7 11 30.11 1020 10 16 0.00 0.00
6:36 am 06:36 Cloudy with Thunderstorms 68 20 66 19 94 94 ESE 9 15 30.12 1020 10 16 0.00 0.00
6:51 am 06:51 Mostly Cloudy 68 20 66 19 94 94 SE 13 20 30.09 1019 10 16 0.00 0.00
6:58 am 06:58 Mostly Cloudy with Nearby Thunderstorms 69 20.3 67 19.5 95 95 SE 13 20 30.11 1020 10 16 0.00 0.00
7:58 am 07:58 Sunny 69 20.8 67 19.7 93 93 ESE 12 19 30.12 1020 10 16 0.00 0.00
8:58 am 08:58 Sunny 73 22.8 68 20 84 84 E 9 15 30.13 1020 10 16 0.00 0.00
9:22 am 09:22 Partly Cloudy with Light Rain 75 24 68 20 78 78 SE 7 11 30.12 1020 10 16 0.00 0.00
9:31 am 09:31 Mostly Cloudy 73 23 66 19 78 78 SE 6 9 30.12 1020 10 16 0.00 0.00
9:58 am 09:58 Mostly Cloudy 74 23.3 67 19.5 79 79 SE 6 9 30.14 1021 10 16 0.00 0.00
10:58 am 10:58 Sunny with Nearby Thunderstorms 72 22.4 68 20 86 86 SSE 12 19 30.14 1021 10 16 0.00 0.00
11:58 am 11:58 Mostly Sunny 74 23.3 69 20.7 85 85 SE 7 11 30.14 1021 10 16 0.00 0.00
12:58 pm 12:58 Partly Cloudy with Nearby Thunderstorms 76 24.4 70 21.1 82 82 SE 8 13 30.15 1021 10 16 0.00 0.00
1:58 pm 13:58 Sunny 75 23.7 70 20.9 84 84 VRB 1 2 30.14 1021 10 16 0.00 0.00
2:58 pm 14:58 Sunny 80 26.9 70 21.2 71 71 SE 10 17 30.14 1021 10 16 0.00 0.00
3:58 pm 15:58 Mostly Sunny 82 27.7 70 21.3 68 68 E 8 13 30.14 1021 10 16 0.00 0.00
4:58 pm 16:58 Sunny 83 28.2 72 22.1 70 70 ESE 10 17 30.13 1020 10 16 0.00 0.00
5:58 pm 17:58 Sunny 83 28.1 72 22.3 71 71 E 10 17 30.12 1020 10 16 0.00 0.00
6:58 pm 18:58 Sunny 81 27.4 71 21.5 70 70 E 10 17 30.11 1020 10 16 0.00 0.00
7:58 pm 19:58 Sunny 80 26.4 71 21.9 76 76 E 8 13 30.10 1019 10 16 0.00 0.00
8:58 pm 20:58 Clear 76 24.6 71 21.5 83 83 E 7 11 30.11 1020 10 16 0.00 0.00
9:58 pm 21:58 Partly Cloudy 76 24.2 70 21.2 83 83 ESE 9 15 30.12 1020 10 16 0.00 0.00
10:58 pm 22:58 Clear 75 23.8 69 20.6 82 82 ESE 9 15 30.12 1020 10 16 0.00 0.00
11:58 pm 23:58 Mostly Clear 75 23.8 70 20.9 84 84 ESE 12 19 30.14 1021 10 16 0.00 0.00

Powered by AerisWeather